Le nostre stazioni meteo in Italia

Pubblicità
Il mio iltempo24.it
Achnagart, Gran Bretagna (99191): Temperatura & dewpoint: 10.12.2017 16:00:00 - 16.12.2017 16:00:00 (GMT)Achnagart, Gran Bretagna (99191): precipitazioni: 10.12.2017 16:00:00 - 16.12.2017 16:00:00 (GMT)
Data & Tempo tt [°C] td [°C] rr [mm]
16.12.2017 16:00:00 0,8 0,8 0,0
16.12.2017 15:00:00 0,7 0,6 0,0
16.12.2017 14:00:00 2,1 2,1 0,0
16.12.2017 13:00:00 1,6 1,6 0,0
16.12.2017 12:00:00 0,7 0,7 0,4
16.12.2017 11:00:00 0,4 0,4 0,0
16.12.2017 10:00:00 0,0 0,0 0,0
16.12.2017 09:00:00 -0,4 -0,4 0,0
16.12.2017 08:00:00 -0,4 -0,4 0,0
16.12.2017 07:00:00 -0,2 -0,2 0,0
16.12.2017 06:00:00 -0,5 -0,5 0,0
16.12.2017 05:00:00 -0,2 -0,2 0,0
16.12.2017 04:00:00 -0,3 -0,3 0,0
16.12.2017 03:00:00 -0,9 -1,0 0,0
16.12.2017 02:00:00 0,0 -0,1 0,0
16.12.2017 01:00:00 -0,1 -0,2 0,0
16.12.2017 00:00:00 0,5 0,3 0,0
15.12.2017 23:00:00 0,6 0,3 0,0
15.12.2017 22:00:00 0,8 0,2 0,4
15.12.2017 21:00:00 1,8 1,1 0,4
15.12.2017 20:00:00 1,6 0,6 0,2
15.12.2017 19:00:00 2,6 0,8 0,0
15.12.2017 18:00:00 - - 0,0
15.12.2017 17:00:00 3,2 0,4 0,4
15.12.2017 16:00:00 3,2 1,7 1,2
15.12.2017 15:00:00 3,3 2,0 0,2
15.12.2017 14:00:00 3,1 1,9 0,6
15.12.2017 13:00:00 4,1 2,1 0,0
15.12.2017 12:00:00 4,3 2,0 0,0
15.12.2017 11:00:00 2,9 1,7 0,0
15.12.2017 10:00:00 2,1 0,5 0,0
15.12.2017 09:00:00 1,9 0,2 0,0
15.12.2017 08:00:00 3,4 0,1 0,0
15.12.2017 07:00:00 4,8 -0,8 0,0
15.12.2017 06:00:00 5,4 0,1 0,0
15.12.2017 05:00:00 5,5 0,9 0,2
15.12.2017 04:00:00 5,0 2,1 1,0
15.12.2017 03:00:00 4,6 2,1 0,4
15.12.2017 02:00:00 4,3 2,8 0,2
15.12.2017 01:00:00 2,7 1,9 0,6
15.12.2017 00:00:00 2,1 0,4 0,0
14.12.2017 23:00:00 3,8 1,2 0,0
14.12.2017 22:00:00 3,0 0,9 0,0
14.12.2017 21:00:00 4,8 1,2 0,0
14.12.2017 20:00:00 4,3 2,4 0,0
14.12.2017 19:00:00 1,3 1,3 0,4
14.12.2017 18:00:00 1,5 1,5 0,2
14.12.2017 17:00:00 1,0 0,9 2,6
14.12.2017 16:00:00 0,8 0,7 2,4
14.12.2017 15:00:00 0,5 0,4 1,6
14.12.2017 14:00:00 0,7 0,5 1,0
14.12.2017 13:00:00 0,5 0,4 0,2
14.12.2017 12:00:00 -0,4 -0,6 0,0
14.12.2017 11:00:00 -1,2 -1,4 0,0
14.12.2017 10:00:00 -0,7 -0,9 0,0
14.12.2017 09:00:00 -0,3 -0,5 0,0
14.12.2017 08:00:00 0,8 0,5 0,2
14.12.2017 07:00:00 0,9 0,5 0,4
14.12.2017 06:00:00 1,6 0,7 0,4
14.12.2017 05:00:00 2,0 1,6 0,0
14.12.2017 04:00:00 0,6 0,4 0,0
14.12.2017 03:00:00 0,8 0,5 0,0
14.12.2017 02:00:00 1,2 0,8 0,0
14.12.2017 01:00:00 1,4 0,7 2,6
14.12.2017 00:00:00 2,2 1,0 0,0
13.12.2017 23:00:00 1,9 1,1 0,0
13.12.2017 22:00:00 0,6 0,0 0,0
13.12.2017 21:00:00 0,9 0,2 0,2
13.12.2017 20:00:00 1,5 0,2 0,0
13.12.2017 19:00:00 1,5 0,8 0,0
13.12.2017 18:00:00 0,6 0,3 0,0
13.12.2017 17:00:00 1,2 0,8 0,2
13.12.2017 16:00:00 1,1 0,6 0,0
13.12.2017 15:00:00 1,4 0,5 1,0
13.12.2017 14:00:00 3,1 0,4 0,0
13.12.2017 13:00:00 4,6 -0,4 0,0
13.12.2017 12:00:00 4,5 0,5 0,0
13.12.2017 11:00:00 4,5 0,9 0,8
13.12.2017 10:00:00 4,1 0,9 0,4
13.12.2017 09:00:00 5,4 0,4 0,8
13.12.2017 08:00:00 5,6 2,9 0,4
13.12.2017 07:00:00 3,5 2,2 3,6
13.12.2017 06:00:00 4,3 2,3 5,8
13.12.2017 05:00:00 5,2 2,6 0,6
13.12.2017 04:00:00 5,6 2,1 0,4
13.12.2017 03:00:00 3,5 1,0 0,0
13.12.2017 02:00:00 5,5 0,4 0,0
13.12.2017 01:00:00 5,2 1,5 0,2
13.12.2017 00:00:00 4,3 1,5 0,2
12.12.2017 23:00:00 5,1 1,8 0,4
12.12.2017 22:00:00 6,1 1,1 0,2
12.12.2017 21:00:00 6,0 2,0 2,0
12.12.2017 20:00:00 5,4 2,7 2,0
12.12.2017 19:00:00 3,4 1,3 2,4
12.12.2017 18:00:00 3,5 1,5 2,0
12.12.2017 17:00:00 3,8 1,4 1,6
12.12.2017 16:00:00 4,1 1,5 1,2
12.12.2017 15:00:00 3,9 1,3 1,6
12.12.2017 14:00:00 4,4 1,4 1,0
12.12.2017 13:00:00 2,8 0,5 0,2
12.12.2017 12:00:00 1,3 -0,2 0,0
12.12.2017 11:00:00 0,3 -1,0 0,0
12.12.2017 10:00:00 0,6 0,1 0,0
12.12.2017 09:00:00 -4,2 -4,5 0,0
12.12.2017 08:00:00 -5,0 -5,4 0,0
12.12.2017 07:00:00 -5,5 -6,0 0,0
12.12.2017 06:00:00 -4,6 -5,0 0,0
12.12.2017 05:00:00 -3,7 -4,1 0,0
12.12.2017 04:00:00 -4,3 -4,7 0,0
12.12.2017 03:00:00 -2,8 -3,0 0,0
12.12.2017 02:00:00 -5,3 -5,8 0,0
12.12.2017 01:00:00 -5,8 -6,3 0,0
12.12.2017 00:00:00 -6,2 -6,8 0,0
11.12.2017 23:00:00 -5,9 -6,5 0,0
11.12.2017 22:00:00 -4,7 -5,1 0,0
11.12.2017 21:00:00 -2,6 -2,8 0,0
11.12.2017 20:00:00 -2,8 -3,0 0,0
11.12.2017 19:00:00 -3,8 -4,0 0,0
11.12.2017 18:00:00 -4,3 -4,6 0,0
11.12.2017 17:00:00 -3,3 -3,6 0,0
11.12.2017 16:00:00 -1,7 -1,9 0,0
11.12.2017 15:00:00 -0,5 -0,7 0,4
11.12.2017 14:00:00 0,4 0,1 0,6
11.12.2017 13:00:00 0,8 0,7 0,8
11.12.2017 12:00:00 1,0 1,0 0,6
11.12.2017 11:00:00 0,7 0,7 0,2
11.12.2017 10:00:00 0,7 0,7 0,2
11.12.2017 09:00:00 0,3 0,3 0,0
11.12.2017 08:00:00 -0,1 -0,1 0,0
11.12.2017 07:00:00 -0,3 -0,3 0,0
11.12.2017 06:00:00 -1,3 -1,3 0,0
11.12.2017 05:00:00 -2,0 -2,0 0,0
11.12.2017 04:00:00 -3,1 -3,3 0,0
11.12.2017 03:00:00 -4,2 -4,6 0,0
11.12.2017 02:00:00 -2,4 -2,6 0,0
11.12.2017 01:00:00 -1,0 -1,2 0,0
11.12.2017 00:00:00 -1,3 -1,5 0,0
10.12.2017 23:00:00 -1,7 -1,9 0,0
10.12.2017 22:00:00 -2,4 -2,7 0,0
10.12.2017 21:00:00 -2,5 -2,9 0,0
10.12.2017 20:00:00 -3,1 -3,4 0,0
10.12.2017 19:00:00 -3,6 -4,0 0,0
10.12.2017 18:00:00 -4,0 -4,4 0,0
10.12.2017 17:00:00 -4,2 -4,6 0,0
10.12.2017 16:00:00 -4,8 -5,5 0,0

tt = Temperatura
td = dewpoint
rr = precipitazioni

Stazioni seguenti

WeatherPro
AMSI
MeteoEarth